Dickinson, ND

5:56 PM MDT on April 26, 2017 (GMT -0600)
Dickinson Municipal

Weather History for KDIK - October, 2011

Change the Weather History Date:

Monday, October 10, 2011

  Actual Average Record
Temperature  
Mean Temperature 51 °F 46 °F  
Max Temperature 64 °F 60 °F 90 °F (1910)
Min Temperature 38 °F 33 °F -2 °F (1919)
Degree Days  
Heating Degree Days 14 19  
Month to date heating degree days 72 168  
Since 1 July heating degree days 308 522  
Cooling Degree Days 0 0  
Month to date cooling degree days 16 0  
Year to date cooling degree days 358 418  
Moisture  
Dew Point 42 °F    
Average Humidity 68    
Maximum Humidity 100    
Minimum Humidity 36    
Precipitation  
Precipitation 0.13 in 0.04 in 0.50 in (1929)
Month to date precipitation 0.26 0.46  
Year to date precipitation 17.25 14.22  
Sea Level Pressure  
Sea Level Pressure 29.79 in    
Wind  
Wind Speed 8 mph (SSW)    
Max Wind Speed 20 mph    
Max Gust Speed 26 mph    
Visibility 7 miles    
Events Rain    
T = Trace of Precipitation, MM = Missing Value Source: NWS Daily Summary

Daily Weather History Graph

Daily Weather History Graph

Search for Another Location

Airport or City:

Trip Planner

Search our weather history database for the weather conditions in past years. The results will help you decide how hot, cold, wet, or windy it might be!

Date:

Astronomy

Oct. 10, 2011 Rise Set
Actual Time 7:01 AM MDT 6:13 PM MDT
Civil Twilight 6:31 AM MDT 6:44 PM MDT
Nautical Twilight 5:56 AM MDT 7:19 PM MDT
Astronomical Twilight 5:20 AM MDT 7:54 PM MDT
Moon 5:18 PM MDT (10/10) 5:43 AM MDT (10/10)
Length of Visible Light 12h 12m
Length of Day
11h 12m
Waxing Gibbous, 98% of the Moon is Illuminated
Oct 10
Waxing Gibbous
Oct 11
Full
Oct 19
Last Quarter
Oct 26
New
Nov 2
First Quarter

Hourly Weather History & Observations

Time (MDT) Temp. Windchill Dew Point Humidity Pressure Visibility Wind Dir Wind Speed Gust Speed Precip Events Conditions
1:19 AM 44.6 °F - 44.6 °F 100% 29.87 in 2.5 mi Calm Calm - N/A   Overcast
1:26 AM 44.6 °F - 44.6 °F 100% 29.87 in 5.0 mi Calm Calm - N/A   Overcast
1:56 AM 45.0 °F - 45.0 °F 100% 29.89 in 4.0 mi Calm Calm - N/A   Overcast
2:29 AM 46.4 °F - 44.6 °F 93% 29.85 in 4.0 mi Calm Calm - 0.01 in   Overcast
2:52 AM 44.6 °F - 44.6 °F 100% 29.85 in 6.0 mi Calm Calm - 0.01 in   Overcast
2:56 AM 46.0 °F - 45.0 °F 96% 29.87 in 6.0 mi Calm Calm - 0.01 in   Overcast
3:56 AM 45.0 °F - 44.1 °F 97% 29.85 in 7.0 mi Calm Calm - N/A   Overcast
4:38 AM 44.6 °F 43.1 °F 44.6 °F 100% 29.83 in 2.5 mi South 3.5 mph - 0.00 in   Overcast
4:48 AM 44.6 °F 43.1 °F 44.6 °F 100% 29.83 in 1.2 mi South 3.5 mph - 0.00 in Rain Light Rain
5:00 AM 44.6 °F 42.2 °F 44.6 °F 100% 29.83 in 0.8 mi South 4.6 mph - 0.00 in Rain Light Rain
5:15 AM 44.6 °F 42.2 °F 44.6 °F 100% 29.83 in 2.0 mi South 4.6 mph - 0.00 in Rain Light Rain
5:23 AM 44.6 °F 42.2 °F 44.6 °F 100% 29.83 in 4.0 mi South 4.6 mph - 0.00 in Rain Light Rain
5:56 AM 45.0 °F 42.6 °F 44.1 °F 97% 29.84 in 4.0 mi South 4.6 mph - 0.00 in Rain Light Rain
8:56 AM 46.0 °F 41.0 °F 45.0 °F 96% 29.81 in 5.0 mi SSW 10.4 mph - 0.04 in Rain Light Rain
9:56 AM 46.9 °F - 45.0 °F 93% 29.80 in 7.0 mi SSW 11.5 mph - 0.05 in Rain Light Rain
10:56 AM 50.0 °F - 46.9 °F 89% 29.78 in 10.0 mi SSW 12.7 mph - 0.01 in   Overcast
11:56 AM 52.0 °F - 46.0 °F 80% 29.76 in 10.0 mi SSW 13.8 mph - N/A   Mostly Cloudy
12:56 PM 55.9 °F - 46.0 °F 69% 29.73 in 10.0 mi South 13.8 mph - N/A   Clear
1:56 PM 60.1 °F - 45.0 °F 57% 29.70 in 10.0 mi SSW 12.7 mph 25.3 mph N/A   Partly Cloudy
4:56 PM 62.1 °F - 36.0 °F 38% 29.67 in 10.0 mi West 11.5 mph - N/A   Partly Cloudy
5:56 PM 55.9 °F - 35.1 °F 45% 29.69 in 10.0 mi West 10.4 mph - N/A   Clear
6:56 PM 46.9 °F - 37.9 °F 71% 29.72 in 10.0 mi West 5.8 mph - N/A   Clear
7:56 PM 45.0 °F - 37.0 °F 74% 29.73 in 10.0 mi Calm Calm - N/A   Clear
8:56 PM 41.0 °F 39.0 °F 36.0 °F 82% 29.73 in 10.0 mi South 3.5 mph - N/A   Clear
9:56 PM 39.0 °F 34.8 °F 35.1 °F 86% 29.73 in 10.0 mi South 5.8 mph - N/A   Clear
10:56 PM 39.0 °F 33.4 °F 35.1 °F 86% 29.72 in 10.0 mi South 8.1 mph - N/A   Clear
11:56 PM 39.0 °F 33.4 °F 35.1 °F 86% 29.70 in 10.0 mi SSW 8.1 mph - N/A   Clear